[[{"header":{"parameterUnit":"m.s-1","parameterCategory":1,"la1":30.2991,"la2":30.254,"lo1":-89.0895,"lo2":-89.0444,"dy":0.0017,"dx":0.0017,"nx":28,"ny":28,"refTime":"2025-03-02T09:00:00:Z","depth":0,"parameterNumber":2,"parameterNumberName":"U-component_of_WINDS"},"data":[0,0,0,0,0,0,0,0,0,0,0,0,0,0,0,0,0,0,0,0,0,0,0,0,0,0,0,0,0,0,0,0,0,0,0,0,0,0,0,0,0,0,0,0,0,0,0,0,0,0,0,0,0,0,0,0,0,0,-5.9137,-5.9138,0,-5.9224,-5.9225,-5.9226,-5.9165,-5.9162,-5.9159,-5.9157,-5.9244,-5.9249,-5.9253,0,0,0,0,0,0,0,0,0,0,0,0,0,-5.8915,-5.892,-5.9137,-5.9138,-5.9139,-5.9224,-5.9225,-5.9226,-5.9165,-5.9162,-5.9159,-5.9156,-5.9242,-5.9248,-5.9254,0,0,0,0,0,0,0,0,0,0,0,0,0,-5.9008,-5.8921,-5.9136,-5.9119,-5.9118,-5.9224,-5.9225,-5.9227,-5.9166,-5.9162,-5.9158,-5.9154,-5.924,-5.9247,-5.9255,-5.9382,0,0,-5.9277,-5.928,0,0,0,0,0,0,0,0,-5.9003,-5.9016,-5.912,-5.912,-5.912,-5.9179,-5.9179,-5.9279,-5.9167,-5.9148,-5.9157,-5.9152,-5.9226,-5.9234,-5.9259,-5.9386,-5.939,-5.9278,-5.9282,-5.9285,-5.9287,0,0,0,0,0,0,0,-5.8996,-5.9012,-5.9171,-5.9122,-5.9121,-5.9106,-5.9114,-5.9198,-5.9208,-5.9149,-5.9145,-5.9156,-5.9225,-5.9252,-5.9261,-5.9391,-5.9277,-5.9284,-5.9288,-5.9291,-5.9626,-5.963,0,0,0,0,0,0,-5.8992,-5.9007,-5.9168,-5.9174,-5.905,-5.9113,-5.9123,-5.9164,-5.9207,-5.921,-5.916,-5.9153,-5.9242,-5.9252,-5.9264,-5.9414,-5.9285,-5.9292,-5.9296,-5.9621,-5.9627,-5.9632,0,0,0,0,0,0,-5.8987,-5.9007,-5.9165,-5.9089,-5.9108,-5.9121,-5.9168,-5.9168,-5.9196,-5.9215,-5.9217,-5.9186,-5.9239,-5.9253,-5.9353,-5.9416,-5.9295,-5.9302,-5.9616,-5.9623,-5.9629,-5.9716,0,0,0,0,0,0,-5.8981,-5.9005,-5.9054,-5.9091,-5.9113,-5.9253,-5.9172,-5.9173,-5.9209,-5.9201,-5.9241,-5.9243,-5.9237,-5.9342,-5.936,-5.9424,-5.9308,-5.961,-5.9619,-5.9627,-5.9707,-5.9725,-5.974,0,0,0,0,0,-5.8973,-5.9075,-5.9057,-5.9077,-5.9174,-5.9257,-5.9269,-5.9261,-5.9214,-5.9263,-5.9276,-5.9242,-5.9407,-5.9353,-5.9373,-5.9439,-5.9606,-5.9617,-5.9627,-5.97,-5.9721,-5.9739,0,0,0,0,0,0,-5.9043,-5.9079,-5.906,-5.9176,-5.9214,-5.9247,-5.9307,-5.9284,-5.9335,-5.9325,-5.9312,-5.9322,-5.9426,-5.9443,-5.9382,-5.9565,-5.9499,-5.9514,-5.9548,-5.9569,-5.9585,-5.9576,-5.9314,0,0,0,0,0,-5.9073,-5.9138,-5.9166,-5.9265,-5.9286,-5.9294,-5.933,-5.932,-5.9359,-5.9374,-5.9394,-5.9432,-5.9493,-5.9532,-5.9589,-5.9712,-5.9718,-5.9767,-5.9783,-5.9796,-5.9808,-5.9872,-5.9894,-5.9665,-5.9665,-5.9665,0,0,-5.9133,-5.9161,-5.9202,-5.928,-5.9309,-5.9375,-5.9307,-5.9381,-5.943,-5.9385,-5.9479,-5.9497,-5.9538,-5.9649,-5.9699,-5.9667,-5.9873,-5.9809,-5.982,-5.9824,-5.9885,-5.9906,-5.9926,-5.9672,-5.9671,-5.967,0,0,-5.9276,-5.9305,-5.939,-5.9421,-5.9465,-5.947,-5.9491,-5.9528,-5.9538,-5.9633,-5.96,-5.9659,-5.9764,-5.9794,-5.9824,-5.9982,-5.9952,-6.0001,-6.0084,-6.0147,-6.0165,-6.018,-6.0234,-6.0254,-6.0014,-6.0014,-6.0014,0,-5.9344,-5.9445,-5.9437,-5.9514,-5.9548,-5.9513,-5.9599,-5.9629,-5.9689,-5.9713,-5.9678,-5.9808,-5.9834,-5.9951,-5.999,-6.0016,-6.0038,-5.9994,-6.0163,-6.0179,-6.0193,-6.0244,-6.0265,-6.0019,-6.0019,-6.0018,-6.0018,0,-5.9526,-5.9596,-5.966,-5.972,-5.9763,-5.9844,-5.9848,-5.9892,-5.988,-5.9889,-5.9986,-6.0017,-6.0078,-6.0107,-6.0095,-6.0223,-6.0201,-6.0165,-6.0098,-6.0221,-6.0268,-6.0288,-6.0027,-6.0025,-6.0023,-6.0022,0,0,-5.9711,-5.9768,-5.9791,-5.9818,-5.9866,-5.9919,-6.0,-6.0061,-6.0098,-6.0142,-6.0207,-6.0298,-6.0265,-6.0299,-6.0291,-6.0347,-6.0468,-6.0304,-6.0304,-6.033,-6.0607,-6.0631,-6.0654,-6.045,-6.0454,-6.0457,-6.0602,0,-5.9854,-5.9993,-5.9989,-6.0118,-6.0182,-6.0151,-6.022,-6.0257,-6.0269,-6.0324,-6.0337,-6.04,-6.0353,-6.0373,-6.0428,-6.0441,-6.0522,-6.0432,-6.0508,-6.0511,-6.0494,-6.0679,-6.0705,-6.084,-6.0621,-6.0624,-6.0627,0,-6.0038,-6.0089,-6.0225,-6.0263,-6.029,-6.0352,-6.0408,-6.0463,-6.0504,-6.0509,-6.0548,-6.0532,-6.0612,-6.0547,-6.0657,-6.0595,-6.0627,-6.0639,-6.0644,-6.0647,-6.0573,-6.0684,-6.0883,-6.0902,-6.0656,-6.0654,-6.0652,0,-6.0156,-6.0259,-6.0352,-6.0377,-6.0425,-6.047,-6.0492,-6.0529,-6.0567,-6.0616,-6.064,-6.0699,-6.073,-6.0776,-6.0776,-6.0729,-6.0886,-6.0821,-6.089,-6.089,-6.092,-6.0917,-6.1124,-6.0948,-6.0948,-6.0948,-6.0947,0,-6.0313,-6.0396,-6.0406,-6.0463,-6.0555,-6.0552,-6.0643,-6.0661,-6.0695,-6.0755,-6.0733,-6.0789,-6.0788,-6.0846,-6.0847,-6.0936,-6.0952,-6.0956,-6.0954,-6.0955,-6.0954,-6.0973,-6.0962,-6.0953,-6.0952,-6.0951,-6.095,0,-6.0457,-6.0468,-6.0567,-6.0606,-6.0618,-6.0684,-6.0716,-6.0771,-6.0782,-6.0858,-6.0875,-6.0892,-6.0959,-6.0965,-6.1042,-6.1043,-6.115,-6.114,-6.1136,-6.1133,-6.1199,-6.1192,-6.1421,-6.145,-6.126,-6.1261,-6.1263,0,-6.0555,-6.0618,-6.0664,-6.0703,-6.0728,-6.0791,-6.083,-6.083,-6.0871,-6.0923,-6.0971,-6.1036,-6.1087,-6.1195,-6.1214,-6.1273,-6.1262,-6.1339,-6.127,-6.1269,-6.1259,-6.1253,-6.1259,-6.135,-6.1352,-6.1354,-6.1355,0,-6.0726,-6.0729,-6.0785,-6.0844,-6.0891,-6.0937,-6.0981,-6.1014,-6.1019,-6.1066,-6.1135,-6.1175,-6.1255,-6.1318,-6.1377,-6.1399,-6.1378,-6.1378,-6.1396,-6.1395,-6.1389,-6.139,-6.1167,-6.1371,-6.1369,-6.1368,-6.1367,-6.1367,-6.0848,-6.0902,-6.0943,-6.1007,-6.104,-6.1082,-6.1134,-6.1153,-6.121,-6.1275,-6.1272,-6.1347,-6.1388,-6.1464,-6.1491,-6.1549,-6.1523,-6.1551,-6.1557,-6.1562,-6.1568,-6.1384,-6.156,-6.156,-6.156,-6.1559,-6.1559,0,-6.1015,-6.104,-6.1099,-6.1161,-6.1212,-6.119,-6.1238,-6.128,-6.1347,-6.1387,-6.1439,-6.1517,-6.158,-6.1605,-6.1666,-6.1708,-6.1699,-6.1723,-6.1718,-6.1723,-6.1589,-6.1565,-6.1729,-6.1729,-6.1729,-6.1729,-6.1729,-6.1729,-6.1107,-6.1197,-6.1205,-6.1312,-6.1337,-6.141,-6.1439,-6.1477,-6.1509,-6.1598,-6.165,-6.1667,-6.17,-6.1764,-6.182,-6.1826,-6.1848,-6.1876,-6.1877,-6.175,-6.1733,-6.1716,-6.1693,-6.1881,-6.1882,-6.2005,-6.2007,-6.2007]},{"header":{"parameterUnit":"m.s-1","parameterCategory":1,"la1":30.2991,"la2":30.254,"lo1":-89.0895,"lo2":-89.0444,"dy":0.0017,"dx":0.0017,"nx":28,"ny":28,"refTime":"2025-03-02T09:00:00:Z","depth":0,"parameterNumber":3,"parameterNumberName":"V-component_of_WINDS"},"data":[0,0,0,0,0,0,0,0,0,0,0,0,0,0,0,0,0,0,0,0,0,0,0,0,0,0,0,0,0,0,0,0,0,0,0,0,0,0,0,0,0,0,0,0,0,0,0,0,0,0,0,0,0,0,0,0,0,0,2.7101,2.7102,0,2.7184,2.7184,2.7185,2.7211,2.721,2.721,2.721,2.7289,2.7292,2.7294,0,0,0,0,0,0,0,0,0,0,0,0,0,2.6963,2.6966,2.7101,2.7102,2.7103,2.7183,2.7184,2.7186,2.7211,2.721,2.721,2.721,2.7289,2.7291,2.7294,0,0,0,0,0,0,0,0,0,0,0,0,0,2.7032,2.6966,2.7101,2.7126,2.7129,2.7183,2.7185,2.7186,2.7211,2.721,2.721,2.7209,2.7288,2.7291,2.7295,2.7329,0,0,2.7306,2.7308,0,0,0,0,0,0,0,0,2.7028,2.7037,2.7121,2.7124,2.7127,2.7186,2.7165,2.7234,2.7211,2.718,2.721,2.7209,2.7255,2.7262,2.7278,2.7333,2.7336,2.7307,2.7309,2.731,2.7311,0,0,0,0,0,0,0,2.7023,2.7033,2.7134,2.7122,2.7126,2.7132,2.7141,2.7178,2.7219,2.7182,2.7184,2.7194,2.7257,2.7274,2.728,2.7338,2.7306,2.731,2.7312,2.7313,2.7427,2.7428,0,0,0,0,0,0,2.7015,2.7029,2.7131,2.7136,2.7075,2.7135,2.7145,2.7168,2.7219,2.7227,2.7194,2.7195,2.7268,2.7276,2.7283,2.7329,2.731,2.7314,2.7316,2.7427,2.7428,2.7429,0,0,0,0,0,0,2.7012,2.7024,2.7128,2.7083,2.7097,2.7138,2.7163,2.717,2.7188,2.7228,2.7235,2.7205,2.7268,2.7278,2.7319,2.7332,2.7315,2.7319,2.7426,2.7427,2.7428,2.7418,0,0,0,0,0,0,2.7008,2.7022,2.7036,2.7084,2.7099,2.7162,2.7164,2.7172,2.7195,2.7196,2.724,2.7247,2.7269,2.7313,2.7322,2.7336,2.7322,2.7425,2.7426,2.7428,2.7418,2.7419,2.742,0,0,0,0,0,2.7003,2.7029,2.7037,2.7049,2.7118,2.7163,2.7172,2.7198,2.7195,2.721,2.7236,2.7246,2.7329,2.7317,2.7328,2.7343,2.7424,2.7426,2.7428,2.7417,2.7419,2.742,0,0,0,0,0,0,2.6979,2.7035,2.7045,2.7087,2.7121,2.7167,2.7186,2.7198,2.7231,2.7231,2.726,2.727,2.7309,2.733,2.7316,2.738,2.7377,2.7381,2.7365,2.7367,2.7368,2.7362,2.7325,0,0,0,0,0,2.6979,2.7013,2.7059,2.7092,2.7109,2.7144,2.7165,2.7182,2.7217,2.7231,2.726,2.7293,2.7327,2.7348,2.7381,2.7421,2.7432,2.7437,2.7439,2.7439,2.7442,2.7467,2.7471,2.7434,2.7434,2.7434,0,0,2.6979,2.7014,2.7033,2.7088,2.7116,2.715,2.7156,2.719,2.7215,2.7235,2.7277,2.73,2.7338,2.7379,2.7399,2.7398,2.7455,2.7442,2.7442,2.7445,2.7469,2.7473,2.7476,2.7436,2.7435,2.7435,0,0,2.6996,2.7026,2.7057,2.7086,2.7129,2.7153,2.7161,2.7207,2.7224,2.7266,2.7283,2.7312,2.7369,2.7397,2.7418,2.7449,2.7459,2.7459,2.7465,2.7489,2.7492,2.7494,2.7506,2.751,2.7462,2.7462,2.7462,0,2.699,2.7042,2.7071,2.7106,2.7131,2.7154,2.7186,2.7212,2.7262,2.7279,2.7277,2.7352,2.7379,2.7428,2.7436,2.7452,2.7462,2.7453,2.7489,2.7492,2.7495,2.7507,2.7511,2.7461,2.7461,2.7461,2.7461,0,2.7033,2.7069,2.7089,2.7141,2.7168,2.7201,2.7235,2.7258,2.7274,2.7298,2.7342,2.7376,2.7417,2.743,2.7444,2.7482,2.748,2.7484,2.7481,2.7498,2.7509,2.7514,2.7461,2.7461,2.7461,2.7461,0,0,2.7036,2.7106,2.7113,2.7137,2.7188,2.7216,2.7251,2.7293,2.7313,2.7348,2.7378,2.7428,2.7432,2.7457,2.7475,2.7495,2.7519,2.7497,2.7498,2.75,2.7564,2.7561,2.7566,2.7527,2.7528,2.7529,2.7561,0,2.706,2.7125,2.7153,2.7205,2.7239,2.7262,2.7293,2.7327,2.7351,2.7383,2.7409,2.7444,2.7447,2.7462,2.7484,2.7512,2.7533,2.751,2.7555,2.7556,2.7545,2.7572,2.7568,2.7597,2.7566,2.7566,2.7567,0,2.7096,2.7134,2.719,2.7239,2.7254,2.7281,2.7324,2.7354,2.7394,2.741,2.7439,2.7457,2.7494,2.7489,2.7541,2.7525,2.7545,2.7562,2.7564,2.7569,2.7562,2.7578,2.7607,2.7611,2.7574,2.7574,2.7573,0,2.7094,2.7159,2.7201,2.7221,2.7279,2.7298,2.7323,2.7362,2.7387,2.7424,2.744,2.748,2.7502,2.7532,2.7561,2.7554,2.761,2.7607,2.7625,2.7624,2.7635,2.7634,2.7668,2.7647,2.7647,2.7647,2.7647,0,2.7118,2.7151,2.7201,2.7227,2.7265,2.7298,2.7335,2.7361,2.7396,2.7428,2.745,2.7478,2.7514,2.7547,2.7569,2.7609,2.7619,2.7633,2.7638,2.7631,2.7629,2.7644,2.7643,2.7648,2.7648,2.7648,2.7648,0,2.7121,2.7156,2.7204,2.7256,2.727,2.7296,2.7341,2.7367,2.7393,2.7432,2.7443,2.7484,2.7525,2.7556,2.7608,2.7623,2.7666,2.7671,2.7653,2.7656,2.7672,2.767,2.7717,2.7725,2.7699,2.7699,2.7699,0,2.7134,2.7161,2.7217,2.7241,2.7266,2.7303,2.733,2.7363,2.739,2.7439,2.7459,2.7501,2.7537,2.7601,2.7634,2.7674,2.7681,2.7695,2.7687,2.768,2.7683,2.7681,2.7684,2.7696,2.7696,2.7696,2.7696,0,2.7154,2.7171,2.7209,2.7254,2.7285,2.7321,2.7358,2.7376,2.7416,2.7444,2.7488,2.7516,2.757,2.7612,2.7657,2.7681,2.7696,2.7699,2.7705,2.7698,2.7687,2.7694,2.7656,2.7697,2.7697,2.7697,2.7697,2.7697,2.7163,2.7189,2.7234,2.7276,2.7308,2.7342,2.737,2.7401,2.7438,2.7487,2.7504,2.7548,2.7589,2.7651,2.7676,2.7711,2.7711,2.772,2.7722,2.7724,2.7724,2.7681,2.7719,2.7719,2.7719,2.7719,2.7719,0,2.7185,2.7216,2.7254,2.7307,2.734,2.7353,2.7395,2.7422,2.7461,2.7499,2.7535,2.7585,2.7627,2.7665,2.7708,2.7729,2.7736,2.7739,2.7738,2.7743,2.772,2.7711,2.7732,2.7732,2.7732,2.7732,2.7732,2.7732,2.72,2.7245,2.7268,2.7329,2.7359,2.7404,2.7427,2.746,2.749,2.7546,2.7582,2.7607,2.7645,2.7692,2.7731,2.7741,2.7756,2.7757,2.7769,2.7746,2.7745,2.7743,2.7735,2.776,2.776,2.7789,2.7789,2.779]}]]